Date String (YYYY-MM-DD hh:mm:ss) UTC,Instrument flags,absolute air pressure of the measurement (hPa),sample flow rate (lpm),inlet stack bypass flow (lpm),air temperature of the measurement (°C),ambient temperature measured by the external sensor (°C),aerosol sample conditioner tube jacket temperature (°C),OPC LED temperature (°C),internal box temperature (°C),relative humidity of the measurement (%),span deviation,mass concentration of particles derived from Lorenz-Mie calculation of OPC scattering (μg/m³),mass concentration of particles derived from Lorenz-Mie calculation of OPC scattering (μg/m³),mass concentration of particles derived from Lorenz-Mie calculation of OPC scattering (μg/m³)
DateTimeUTC,F1_M11,P_M11,Q1_M11,Q2_M11,T1_M11,T2_M11,T3_M11,T4_M11,T5_M11,U1_M11,ZSPAN_M11,X0_M11,X2_M11,X1_M11
2023-11-25 12:00:00,SystemResetWarning,0827.8,5.01,000.00,019.1,018.3,000.0,027.5,020.5,10.2,0000.0,0005.93,0004.04,0003.75
2023-11-25 12:01:00,SystemResetWarning,0827.8,5.01,000.00,019.3,018.9,000.0,027.5,021.0,10.2,0000.0,0005.98,0004.05,0003.74
2023-11-25 12:02:00,SystemResetWarning,0827.8,4.99,000.00,019.4,019.5,000.0,027.5,021.2,10.1,0000.0,0005.94,0004.04,0003.74
2023-11-25 12:03:00,SystemResetWarning,0827.7,4.99,000.00,019.4,019.4,000.0,027.5,021.0,10.1,0000.0,0006.06,0004.07,0003.74
2023-11-25 12:04:00,SystemResetWarning,0827.8,5.00,000.00,019.4,019.3,000.0,027.5,020.8,10.1,0000.0,0006.20,0004.09,0003.75
2023-11-25 12:05:00,SystemResetWarning,0827.7,5.01,000.00,019.4,019.2,000.0,027.6,020.7,10.1,0000.0,0006.18,0004.09,0003.74
2023-11-25 12:06:00,SystemResetWarning,0827.7,4.99,000.00,019.4,019.0,000.0,027.6,020.7,10.1,0000.0,0006.13,0004.07,0003.74
2023-11-25 12:07:00,SystemResetWarning,0827.7,5.01,000.00,019.3,018.9,000.0,027.6,020.7,10.1,0000.0,0006.14,0004.07,0003.74
2023-11-25 12:08:00,SystemResetWarning,0827.6,5.01,000.00,019.3,018.8,000.0,027.6,020.5,10.1,0000.0,0006.12,0004.06,0003.74
2023-11-25 12:09:00,SystemResetWarning,0827.7,4.99,000.00,019.3,018.7,000.0,027.6,020.5,10.1,0000.0,0006.15,0004.08,0003.74
2023-11-25 12:10:00,SystemResetWarning,0827.7,5.00,000.00,019.3,018.6,000.0,027.6,020.5,10.1,0000.0,0006.18,0004.07,0003.73
2023-11-25 12:11:00,SystemResetWarning,0827.7,5.00,000.00,019.3,018.6,000.0,027.6,020.5,10.1,0000.0,0006.24,0004.06,0003.72
2023-11-25 12:12:00,SystemResetWarning,0827.7,4.99,000.00,019.3,018.5,000.0,027.6,020.4,10.1,0000.0,0006.35,0004.07,0003.72
2023-11-25 12:13:00,SystemResetWarning,0827.7,5.00,000.00,019.2,018.5,000.0,027.6,020.4,10.1,0000.0,0006.58,0004.12,0003.72
2023-11-25 12:14:00,SystemResetWarning,0827.7,5.02,000.00,019.2,018.4,000.0,027.6,020.4,10.1,0000.0,0006.69,0004.11,0003.72
2023-11-25 12:15:00,SystemResetWarning,0827.7,5.01,000.00,019.2,018.4,000.0,027.5,020.3,10.2,0000.0,0006.81,0004.10,0003.71
2023-11-25 12:16:00,SystemResetWarning,0827.7,4.99,000.00,019.2,018.3,000.0,027.5,020.3,10.2,0000.0,0006.81,0004.09,0003.71
2023-11-25 12:17:00,SystemResetWarning,0827.7,4.99,000.00,019.2,018.3,000.0,027.5,020.3,10.2,0000.0,0006.89,0004.09,0003.70
2023-11-25 12:18:00,SystemResetWarning,0827.7,5.02,000.00,019.2,018.3,000.0,027.5,020.3,10.2,0000.0,0006.88,0004.08,0003.69
2023-11-25 12:19:00,SystemResetWarning,0827.7,5.01,000.00,019.1,018.2,000.0,027.5,020.3,10.2,0000.0,0007.14,0004.08,0003.68
2023-11-25 12:20:00,SystemResetWarning,0827.7,4.99,000.00,019.1,018.2,000.0,027.5,020.2,10.2,0000.0,0007.20,0004.07,0003.68
2023-11-25 12:21:00,SystemResetWarning,0827.7,4.99,000.00,019.1,018.2,000.0,027.5,020.2,10.2,0000.0,0007.01,0004.06,0003.68
2023-11-25 12:22:00,SystemResetWarning,0827.8,5.00,000.00,019.1,018.2,000.0,027.5,020.3,10.2,0000.0,0006.87,0004.05,0003.68
2023-11-25 12:23:00,SystemResetWarning,0827.8,5.01,000.00,019.2,018.6,000.0,027.5,020.8,10.2,0000.0,0006.79,0004.04,0003.68
2023-11-25 12:24:00,SystemResetWarning,0827.8,5.00,000.00,019.3,019.3,000.0,027.5,021.2,10.1,0000.0,0006.50,0003.98,0003.67
2023-11-25 12:25:00,SystemResetWarning,0827.7,4.98,000.00,019.4,019.5,000.0,027.5,021.1,10.1,0000.0,0006.24,0003.95,0003.66
2023-11-25 12:26:00,SystemResetWarning,0827.7,5.00,000.00,019.4,019.4,000.0,027.5,020.9,10.1,0000.0,0005.98,0003.93,0003.66
2023-11-25 12:27:00,SystemResetWarning,0827.8,5.01,000.00,019.4,019.2,000.0,027.6,020.8,10.1,0000.0,0005.98,0003.94,0003.65
2023-11-25 12:28:00,SystemResetWarning,0827.8,5.00,000.00,019.4,019.1,000.0,027.6,020.7,10.1,0000.0,0005.93,0003.94,0003.64
2023-11-25 12:29:00,SystemResetWarning,0827.8,5.00,000.00,019.4,019.0,000.0,027.6,020.7,10.1,0000.0,0005.92,0003.95,0003.64
2023-11-25 12:30:00,SystemResetWarning,0827.8,5.00,000.00,019.4,018.9,000.0,027.6,020.5,10.1,0000.0,0005.80,0003.95,0003.64
2023-11-25 12:31:00,SystemResetWarning,0827.8,5.00,000.00,019.3,018.8,000.0,027.6,020.5,10.1,0000.0,0005.76,0003.94,0003.64
2023-11-25 12:32:00,SystemResetWarning,0827.8,5.00,000.00,019.3,018.7,000.0,027.6,020.5,10.1,0000.0,0005.78,0003.94,0003.64
2023-11-25 12:33:00,SystemResetWarning,0828.0,4.99,000.00,019.3,018.6,000.0,027.6,020.4,10.2,0000.0,0005.82,0003.95,0003.64
2023-11-25 12:34:00,SystemResetWarning,0827.8,4.99,000.00,019.3,018.6,000.0,027.6,020.4,10.2,0000.0,0005.86,0003.95,0003.65
2023-11-25 12:35:00,SystemResetWarning,0827.8,5.00,000.00,019.3,018.5,000.0,027.6,020.4,10.2,0000.0,0005.98,0003.97,0003.66
2023-11-25 12:36:00,SystemResetWarning,0827.8,5.01,000.00,019.3,018.4,000.0,027.6,020.4,10.2,0000.0,0006.01,0003.99,0003.66
2023-11-25 12:37:00,SystemResetWarning,0827.8,5.01,000.00,019.2,018.4,000.0,027.5,020.3,10.2,0000.0,0006.05,0004.00,0003.67
2023-11-25 12:38:00,SystemResetWarning,0827.8,4.98,000.00,019.2,018.4,000.0,027.5,020.3,10.2,0000.0,0006.13,0004.01,0003.69
2023-11-25 12:39:00,SystemResetWarning,0827.9,5.00,000.00,019.2,018.3,000.0,027.5,020.3,10.3,0000.0,0006.08,0004.00,0003.70
2023-11-25 12:40:00,SystemResetWarning,0828.0,5.01,000.00,019.2,018.3,000.0,027.5,020.3,10.2,0000.0,0005.98,0004.00,0003.71
2023-11-25 12:41:00,SystemResetWarning,0827.9,5.01,000.00,019.2,018.3,000.0,027.5,020.3,10.2,0000.0,0005.85,0004.00,0003.73
2023-11-25 12:42:00,SystemResetWarning,0827.9,4.98,000.00,019.1,018.3,000.0,027.5,020.2,10.2,0000.0,0005.86,0004.01,0003.74
2023-11-25 12:43:00,SystemResetWarning,0827.9,5.00,000.00,019.1,018.2,000.0,027.5,020.2,10.3,0000.0,0006.04,0004.05,0003.75
2023-11-25 12:44:00,SystemResetWarning,0827.9,5.00,000.00,019.1,018.2,000.0,027.5,020.2,10.3,0000.0,0005.93,0004.04,0003.76
2023-11-25 12:45:00,SystemResetWarning,0827.9,4.99,000.00,019.1,018.2,000.0,027.4,020.2,10.3,0000.0,0005.87,0004.01,0003.75
2023-11-25 12:46:00,SystemResetWarning,0827.9,5.00,000.00,019.1,018.2,000.0,027.4,020.2,10.3,0000.0,0005.77,0003.99,0003.76
2023-11-25 12:47:00,SystemResetWarning,0827.9,5.00,000.00,019.1,018.2,000.0,027.4,020.2,10.3,0000.0,0005.74,0003.99,0003.76
2023-11-25 12:48:00,SystemResetWarning,0828.0,5.01,000.00,019.2,018.5,000.0,027.4,020.7,10.3,0000.0,0005.79,0003.99,0003.75
2023-11-25 12:49:00,SystemResetWarning,0828.1,5.00,000.00,019.3,019.2,000.0,027.4,021.1,10.2,0000.0,0005.70,0003.98,0003.74
2023-11-25 12:50:00,SystemResetWarning,0828.1,4.99,000.00,019.4,019.4,000.0,027.5,021.1,10.1,0000.0,0005.69,0003.97,0003.74
2023-11-25 12:51:00,SystemResetWarning,0828.1,4.99,000.00,019.4,019.3,000.0,027.5,020.8,10.1,0000.0,0005.76,0003.98,0003.73
2023-11-25 12:52:00,SystemResetWarning,0828.0,5.00,000.00,019.4,019.1,000.0,027.5,020.8,10.1,0000.0,0005.75,0003.97,0003.72
2023-11-25 12:53:00,SystemResetWarning,0828.0,5.01,000.00,019.3,019.0,000.0,027.5,020.7,10.1,0000.0,0005.62,0003.95,0003.71
2023-11-25 12:54:00,SystemResetWarning,0828.0,5.01,000.00,019.3,018.9,000.0,027.5,020.6,10.1,0000.0,0005.41,0003.90,0003.69
2023-11-25 12:55:00,SystemResetWarning,0828.0,4.99,000.00,019.3,018.8,000.0,027.5,020.5,10.1,0000.0,0005.48,0003.90,0003.67
2023-11-25 12:56:00,SystemResetWarning,0828.1,4.99,000.00,019.3,018.7,000.0,027.5,020.5,10.1,0000.0,0005.43,0003.91,0003.65
2023-11-25 12:57:00,SystemResetWarning,0828.1,5.00,000.00,019.3,018.6,000.0,027.5,020.4,10.1,0000.0,0005.50,0003.91,0003.63
2023-11-25 12:58:00,SystemResetWarning,0828.1,5.00,000.00,019.3,018.6,000.0,027.5,020.4,10.1,0000.0,0005.44,0003.89,0003.62
2023-11-25 12:59:00,SystemResetWarning,0828.0,5.01,000.00,019.3,018.5,000.0,027.5,020.4,10.1,0000.0,0005.29,0003.86,0003.61
